User: anonymous   Login
Location: Unspecified
(0.0000°N, 0.0000°E)
Time: 19:56:29
(UTC+00:00)
Language:

Transit 4B - Orbit

View from above orbital plane
View from above orbital plane
View from above satellite
View from above satellite

Ground track
Ground track

The orbit data is extracted from the following two-line orbital elements,

1   202U 61031A   17144.94582807 +.00000042 +00000-0 +22856-4 0  9998
2   202 032.4400 017.4345 0101706 277.3952 081.5121 13.63503163768902
Epoch (UTC): 24 May 2017 22:41:59
Eccentricity: 0.0101706
inclination: 32.4400°
perigee height: 948 km
apogee height: 1098 km
right ascension of ascending node: 17.4345°
argument of perigee: 277.3952°
revolutions per day: 13.63503163
mean anomaly at epoch: 81.5121°
orbit number at epoch: 76890

The dashed part of the orbit path shows where the satellite is in the earth's shadow,  

DLR